[[{"header":{"parameterUnit":"m.s-1","parameterCategory":1,"la1":30.2991,"la2":30.254,"lo1":-89.0895,"lo2":-89.0444,"dy":0.0017,"dx":0.0017,"nx":28,"ny":28,"refTime":"2024-04-25T21:00:00:Z","depth":0,"parameterNumber":2,"parameterNumberName":"U-component_of_WINDS"},"data":[0,0,0,0,0,0,0,0,0,0,0,0,0,0,0,0,0,0,0,0,0,0,0,0,0,0,0,0,0,0,0,0,0,0,0,0,0,0,0,0,0,0,0,0,0,0,0,0,0,0,0,0,0,0,0,0,0,0,-5.0063,-5.0065,0,-5.0166,-5.0167,-5.0168,-5.0165,-5.0164,-5.0163,-5.0161,-5.0263,-5.0267,-5.0271,0,0,0,0,0,0,0,0,0,0,0,0,0,-4.9865,-4.9869,-5.0063,-5.0065,-5.0066,-5.0165,-5.0167,-5.0168,-5.0166,-5.0164,-5.0162,-5.0161,-5.0262,-5.0267,-5.0272,0,0,0,0,0,0,0,0,0,0,0,0,0,-4.9957,-4.987,-5.0063,-5.0077,-5.0079,-5.0165,-5.0167,-5.0169,-5.0166,-5.0164,-5.0162,-5.016,-5.026,-5.0266,-5.0272,-5.0351,0,0,-5.0291,-5.0293,0,0,0,0,0,0,0,0,-4.9952,-4.9965,-5.0073,-5.0076,-5.0079,-5.0151,-5.0134,-5.023,-5.0167,-5.0133,-5.0161,-5.0159,-5.0227,-5.0236,-5.026,-5.0356,-5.036,-5.0291,-5.0295,-5.0297,-5.0299,0,0,0,0,0,0,0,-4.9946,-4.996,-5.0104,-5.0075,-5.0078,-5.0077,-5.0088,-5.0152,-5.019,-5.0136,-5.0136,-5.0148,-5.0228,-5.0254,-5.0262,-5.0362,-5.0291,-5.0296,-5.03,-5.0302,-5.0528,-5.0531,0,0,0,0,0,0,-4.9937,-4.9955,-5.01,-5.0107,-5.0009,-5.0083,-5.0095,-5.013,-5.019,-5.0197,-5.015,-5.0147,-5.0245,-5.0255,-5.0266,-5.0361,-5.0297,-5.0303,-5.0306,-5.0526,-5.0529,-5.0532,0,0,0,0,0,0,-4.9933,-4.995,-5.0096,-5.0031,-5.005,-5.0088,-5.0127,-5.0133,-5.0158,-5.02,-5.0207,-5.0169,-5.0243,-5.0257,-5.033,-5.0365,-5.0306,-5.0311,-5.0523,-5.0527,-5.053,-5.0554,0,0,0,0,0,0,-4.9927,-4.9948,-4.9978,-5.0032,-5.0053,-5.0159,-5.013,-5.0136,-5.0169,-5.0167,-5.022,-5.0227,-5.0243,-5.0321,-5.0336,-5.0372,-5.0316,-5.052,-5.0525,-5.0529,-5.055,-5.0558,-5.0564,0,0,0,0,0,-4.992,-4.998,-4.998,-4.9998,-5.0092,-5.0161,-5.0173,-5.0191,-5.0172,-5.0202,-5.023,-5.0225,-5.036,-5.0329,-5.0345,-5.0384,-5.0518,-5.0524,-5.0529,-5.0547,-5.0556,-5.0564,0,0,0,0,0,0,-4.9928,-4.9987,-4.9988,-5.0067,-5.011,-5.0161,-5.02,-5.0201,-5.0249,-5.0245,-5.0265,-5.0277,-5.0349,-5.0374,-5.0339,-5.0464,-5.0436,-5.0445,-5.0444,-5.0454,-5.0461,-5.0452,-5.0321,0,0,0,0,0,-4.994,-4.9992,-5.0041,-5.0106,-5.0128,-5.016,-5.0191,-5.0202,-5.0246,-5.0263,-5.0296,-5.0338,-5.039,-5.0424,-5.0474,-5.0555,-5.0566,-5.059,-5.0597,-5.0603,-5.0609,-5.0654,-5.0665,-5.0549,-5.0549,-5.0549,0,0,-4.9964,-5.0002,-5.0034,-5.0109,-5.0143,-5.0196,-5.0175,-5.0232,-5.0271,-5.0272,-5.0342,-5.0369,-5.0417,-5.0495,-5.053,-5.0518,-5.0645,-5.061,-5.0614,-5.0617,-5.0661,-5.0672,-5.0682,-5.0553,-5.0552,-5.0552,0,0,-5.0033,-5.0068,-5.0127,-5.0162,-5.0214,-5.0236,-5.025,-5.0302,-5.032,-5.0392,-5.0394,-5.0441,-5.053,-5.0565,-5.0594,-5.068,-5.0677,-5.0696,-5.0733,-5.0776,-5.0785,-5.0793,-5.0823,-5.0834,-5.0703,-5.0704,-5.0704,0,-5.0055,-5.0136,-5.0156,-5.0214,-5.0247,-5.0252,-5.0312,-5.0345,-5.041,-5.0433,-5.0418,-5.0531,-5.0564,-5.065,-5.0671,-5.0695,-5.0712,-5.0689,-5.0783,-5.0791,-5.0799,-5.0827,-5.0839,-5.0705,-5.0705,-5.0705,-5.0705,0,-5.016,-5.0216,-5.0257,-5.0322,-5.036,-5.0418,-5.0448,-5.0484,-5.0492,-5.0516,-5.0589,-5.063,-5.0689,-5.0711,-5.0719,-5.0798,-5.0788,-5.0778,-5.075,-5.0811,-5.0838,-5.085,-5.0708,-5.0707,-5.0707,-5.0706,0,0,-5.0234,-5.0312,-5.0327,-5.0356,-5.0416,-5.0459,-5.0519,-5.0577,-5.0607,-5.0654,-5.0703,-5.078,-5.0771,-5.0805,-5.0817,-5.0856,-5.0921,-5.0841,-5.0843,-5.0853,-5.1011,-5.1016,-5.1028,-5.0921,-5.0923,-5.0925,-5.1006,0,-5.0309,-5.0414,-5.0436,-5.0526,-5.0578,-5.0586,-5.0637,-5.0679,-5.0704,-5.0751,-5.0778,-5.0831,-5.0817,-5.0837,-5.0876,-5.0905,-5.0953,-5.09,-5.0966,-5.0968,-5.0951,-5.1043,-5.1049,-5.1122,-5.1017,-5.1019,-5.102,0,-5.0409,-5.0459,-5.0555,-5.0609,-5.0631,-5.0677,-5.0733,-5.0779,-5.0828,-5.0843,-5.0882,-5.0891,-5.0952,-5.0924,-5.1009,-5.0973,-5.1002,-5.1021,-5.1024,-5.1029,-5.0996,-5.1048,-5.1147,-5.1157,-5.1037,-5.1036,-5.1034,0,-5.0452,-5.0543,-5.0613,-5.0638,-5.0703,-5.0735,-5.0764,-5.081,-5.0845,-5.0894,-5.0916,-5.0972,-5.1002,-5.1045,-5.1069,-5.1047,-5.1153,-5.1127,-5.1166,-5.1165,-5.1185,-5.1183,-5.1287,-5.1208,-5.1208,-5.1207,-5.1207,0,-5.0531,-5.0589,-5.0633,-5.0675,-5.0741,-5.0766,-5.083,-5.0859,-5.0901,-5.0948,-5.0959,-5.1004,-5.1034,-5.1083,-5.1103,-5.117,-5.1184,-5.1197,-5.1201,-5.1195,-5.1193,-5.1212,-5.1206,-5.121,-5.121,-5.1209,-5.1209,0,-5.0589,-5.062,-5.0696,-5.0753,-5.0768,-5.0814,-5.0862,-5.0904,-5.093,-5.099,-5.1006,-5.1046,-5.1105,-5.1134,-5.1207,-5.122,-5.1295,-5.1297,-5.1279,-5.128,-5.1317,-5.1312,-5.1435,-5.1452,-5.1363,-5.1364,-5.1365,0,-5.0636,-5.0681,-5.0743,-5.0776,-5.0806,-5.0859,-5.0895,-5.0923,-5.0959,-5.1019,-5.1054,-5.1113,-5.1162,-5.1255,-5.1291,-5.1347,-5.1349,-5.1388,-5.1357,-5.1349,-5.1347,-5.1343,-5.1348,-5.1392,-5.1393,-5.1394,-5.1395,0,-5.0716,-5.073,-5.0781,-5.0839,-5.0882,-5.0928,-5.0974,-5.1,-5.1036,-5.1076,-5.1137,-5.1175,-5.125,-5.1309,-5.1368,-5.1397,-5.1402,-5.1405,-5.1417,-5.1409,-5.1396,-5.1402,-5.1292,-5.1401,-5.14,-5.14,-5.14,-5.1399,-5.0769,-5.0809,-5.086,-5.0917,-5.0955,-5.0998,-5.104,-5.1072,-5.1123,-5.1187,-5.1201,-5.1265,-5.1314,-5.1394,-5.1425,-5.1475,-5.1467,-5.1484,-5.1488,-5.1491,-5.1492,-5.1391,-5.1487,-5.1486,-5.1486,-5.1486,-5.1486,0,-5.0848,-5.0882,-5.0934,-5.0999,-5.1044,-5.1047,-5.1098,-5.1135,-5.1191,-5.1237,-5.1286,-5.1356,-5.1414,-5.1455,-5.1514,-5.1546,-5.155,-5.156,-5.1557,-5.1564,-5.1497,-5.148,-5.1557,-5.1557,-5.1557,-5.1557,-5.1557,-5.1557,-5.0895,-5.0963,-5.0984,-5.1072,-5.1105,-5.1168,-5.1197,-5.1237,-5.1274,-5.1352,-5.14,-5.1427,-5.1472,-5.1534,-5.1587,-5.1598,-5.1618,-5.1629,-5.1639,-5.1576,-5.1568,-5.1561,-5.1545,-5.1633,-5.1634,-5.1701,-5.1701,-5.1702]},{"header":{"parameterUnit":"m.s-1","parameterCategory":1,"la1":30.2991,"la2":30.254,"lo1":-89.0895,"lo2":-89.0444,"dy":0.0017,"dx":0.0017,"nx":28,"ny":28,"refTime":"2024-04-25T21:00:00:Z","depth":0,"parameterNumber":3,"parameterNumberName":"V-component_of_WINDS"},"data":[0,0,0,0,0,0,0,0,0,0,0,0,0,0,0,0,0,0,0,0,0,0,0,0,0,0,0,0,0,0,0,0,0,0,0,0,0,0,0,0,0,0,0,0,0,0,0,0,0,0,0,0,0,0,0,0,0,0,4.9122,4.9122,0,4.9083,4.9082,4.9082,4.9057,4.9057,4.9057,4.9057,4.9012,4.9011,4.901,0,0,0,0,0,0,0,0,0,0,0,0,0,4.9174,4.9173,4.9122,4.9122,4.9122,4.9083,4.9082,4.9082,4.9057,4.9057,4.9057,4.9057,4.9012,4.9011,4.9009,0,0,0,0,0,0,0,0,0,0,0,0,0,4.9145,4.9173,4.9123,4.9105,4.9103,4.9083,4.9082,4.9082,4.9057,4.9057,4.9057,4.9057,4.9012,4.9011,4.9009,4.9003,0,0,4.9004,4.9004,0,0,0,0,0,0,0,0,4.9146,4.9143,4.9108,4.9106,4.9104,4.9075,4.9084,4.9055,4.9057,4.9074,4.9057,4.9056,4.9032,4.9029,4.9022,4.9001,4.8999,4.9004,4.9003,4.9002,4.9002,0,0,0,0,0,0,0,4.9148,4.9144,4.9107,4.9107,4.9105,4.9098,4.9093,4.9078,4.9055,4.9073,4.9071,4.9067,4.9031,4.9024,4.9021,4.8998,4.9004,4.9003,4.9002,4.9001,4.8971,4.8972,0,0,0,0,0,0,4.9154,4.9146,4.9108,4.9105,4.9125,4.9097,4.9092,4.9084,4.9055,4.905,4.9067,4.9066,4.9027,4.9023,4.9019,4.9011,4.9002,4.9001,4.9,4.8971,4.8971,4.8972,0,0,0,0,0,0,4.9155,4.9151,4.9109,4.9125,4.912,4.9096,4.9088,4.9083,4.9076,4.9051,4.9046,4.9064,4.9026,4.9021,4.9008,4.9009,4.9,4.8999,4.8971,4.8971,4.8972,4.8994,0,0,0,0,0,0,4.9157,4.9151,4.9149,4.9126,4.9119,4.91,4.9088,4.9083,4.9074,4.9072,4.9046,4.9042,4.9026,4.901,4.9006,4.9006,4.8997,4.8971,4.8971,4.8971,4.8993,4.8995,4.8996,0,0,0,0,0,4.9158,4.9156,4.9149,4.9145,4.9116,4.91,4.9096,4.9079,4.9074,4.9071,4.9055,4.9043,4.901,4.9009,4.9004,4.9004,4.8971,4.8971,4.8971,4.8992,4.8994,4.8996,0,0,0,0,0,0,4.9178,4.9152,4.9145,4.9134,4.912,4.9096,4.9092,4.9082,4.9067,4.9065,4.9043,4.9038,4.9027,4.9014,4.9014,4.8997,4.8989,4.8988,4.9006,4.9008,4.901,4.9013,4.8996,0,0,0,0,0,4.9181,4.9172,4.9149,4.9142,4.9135,4.9115,4.9107,4.9096,4.9079,4.9072,4.9055,4.9039,4.9025,4.9015,4.9001,4.8991,4.8985,4.8988,4.899,4.8992,4.8992,4.8986,4.8988,4.8973,4.8973,4.8973,0,0,4.9187,4.9172,4.9167,4.9146,4.9133,4.9123,4.911,4.9099,4.9091,4.907,4.9057,4.9044,4.9024,4.9013,4.9007,4.9002,4.8995,4.8992,4.8994,4.8993,4.8987,4.8988,4.899,4.8973,4.8973,4.8973,0,0,4.9194,4.9181,4.9175,4.9163,4.9145,4.9132,4.913,4.9108,4.91,4.9087,4.9071,4.9061,4.9037,4.9024,4.9014,4.9018,4.9005,4.9013,4.9022,4.9018,4.9019,4.902,4.9022,4.9022,4.9013,4.9013,4.9013,0,4.9203,4.9188,4.9172,4.9163,4.9154,4.9137,4.913,4.9119,4.9096,4.909,4.9086,4.9057,4.9042,4.9028,4.9029,4.9021,4.9019,4.9016,4.902,4.9021,4.9022,4.9023,4.9024,4.9014,4.9014,4.9014,4.9014,0,4.9201,4.9191,4.9188,4.9169,4.916,4.9152,4.9134,4.9126,4.9116,4.9103,4.9091,4.9073,4.9055,4.9051,4.9039,4.9035,4.9033,4.9025,4.9015,4.9024,4.9025,4.9026,4.9016,4.9015,4.9015,4.9015,0,0,4.9217,4.9191,4.919,4.9182,4.9162,4.9153,4.9144,4.9129,4.9123,4.9109,4.9101,4.9082,4.9075,4.9064,4.9051,4.9047,4.9052,4.9039,4.9038,4.9042,4.9048,4.9054,4.9055,4.9045,4.9045,4.9045,4.9049,0,4.922,4.9206,4.9192,4.9181,4.9172,4.9157,4.9149,4.9136,4.9124,4.9114,4.91,4.9088,4.9079,4.9072,4.9068,4.9053,4.9053,4.9052,4.9036,4.9036,4.9042,4.9055,4.9062,4.9067,4.905,4.905,4.905,0,4.9222,4.9211,4.92,4.9182,4.9178,4.9172,4.9157,4.9148,4.9132,4.9124,4.9113,4.9101,4.909,4.9083,4.9069,4.9069,4.9062,4.9054,4.9053,4.9051,4.9043,4.9053,4.9068,4.9069,4.905,4.905,4.905,0,4.9235,4.9217,4.9209,4.9202,4.9181,4.9177,4.9168,4.9152,4.9145,4.9132,4.9126,4.9112,4.9104,4.9093,4.9076,4.9073,4.9064,4.9055,4.9057,4.9057,4.9055,4.9055,4.9069,4.9051,4.9051,4.9051,4.9051,0,4.924,4.9235,4.9215,4.9209,4.9203,4.9187,4.918,4.9169,4.9156,4.9148,4.9134,4.9126,4.9106,4.9096,4.9083,4.9074,4.907,4.9063,4.9059,4.9064,4.9065,4.9058,4.9058,4.9051,4.9051,4.9051,4.9051,0,4.9254,4.924,4.923,4.9212,4.9207,4.9203,4.9187,4.9181,4.917,4.916,4.9157,4.9138,4.9126,4.9109,4.9091,4.9083,4.9075,4.907,4.9081,4.9079,4.9082,4.9082,4.9091,4.9092,4.9074,4.9074,4.9074,0,4.9258,4.9253,4.9235,4.923,4.9222,4.9213,4.9206,4.919,4.9183,4.9166,4.9163,4.915,4.9139,4.912,4.9104,4.9091,4.9085,4.909,4.9083,4.9088,4.9085,4.9086,4.9086,4.9091,4.9091,4.9091,4.9092,0,4.9266,4.9261,4.9251,4.924,4.9232,4.9222,4.9212,4.9208,4.919,4.9182,4.9171,4.9163,4.9146,4.9133,4.9118,4.9108,4.9097,4.9094,4.9094,4.9098,4.9105,4.9102,4.9085,4.9094,4.9093,4.9093,4.9093,4.9093,4.9275,4.9271,4.9259,4.9249,4.924,4.9231,4.9225,4.9214,4.9204,4.9191,4.9182,4.9171,4.9157,4.9136,4.9126,4.9117,4.9112,4.9112,4.9112,4.9112,4.9114,4.9107,4.9114,4.9114,4.9114,4.9114,4.9114,0,4.9283,4.9275,4.9267,4.9253,4.9246,4.9239,4.9227,4.9221,4.9212,4.92,4.9191,4.9178,4.9167,4.9151,4.9138,4.9134,4.9129,4.9131,4.9131,4.9129,4.9118,4.912,4.9136,4.9136,4.9136,4.9136,4.9136,4.9136,4.9287,4.928,4.9273,4.9262,4.9253,4.9244,4.9238,4.9229,4.922,4.9207,4.9198,4.9189,4.9176,4.9162,4.9151,4.9147,4.9143,4.9147,4.9141,4.9131,4.9129,4.9128,4.9129,4.9147,4.9147,4.9153,4.9153,4.9153]}]]